Meteo Giornale » Osservazioni meteo Francia » Lione-Bron

ore: 11:00 - Osservazioni Meteo Lione-Bron
Lat. 45° 43' N Lon. 4° 57' E Alt. 200 metri s.l.m.

poco_nuvoloso Europe/Paris

15 °C

Poco Nuvoloso

Temp. 24 Ore

8 °C

18 °C

Nord

3.7 Km/h

Dew point 11 °C

Umidità 76 %

Visibilità  10 Km

Il sole sorge alle ore 07:36

Il sole tramonta alle ore 19:23

Data e Ora Cielo e Fenomeni T °C DP °C Um. % Pres. hPa Vis. km Vento km/h
Oggi h: 11:00 poco_nuvoloso Poco Nuvoloso 15 11 76 1016 10 N 3.7
Oggi h: 10:30 sereno Sereno 13 10 81 1017 10 N 1.8
Oggi h: 10:00 sereno Sereno 12 10 87 1017 10 N 3.7
Oggi h: 09:30 sereno Sereno 11 9 87 1017 10 N 0
Oggi h: 09:00 sereno Sereno 10 10 100 1017 10 N 0
Oggi h: 08:30 sereno Sereno 9 8 93 1017 10 N 0
Oggi h: 08:00 sereno Sereno 8 7 93 1017 10 N 3.7
Oggi h: 07:30 sereno Sereno 8 7 93 1017 10 N 3.7
Oggi h: 07:00 sereno Sereno 8 7 93 1017 10 N 0
Oggi h: 06:30 sereno Sereno 8 7 93 1017 8 N 0
Oggi h: 06:00 sereno Sereno 8 7 93 1017 9 N 1.8
Oggi h: 05:30 sereno Sereno 9 8 93 1017 10 N 0
Oggi h: 05:00 sereno Sereno 9 8 93 1017 10 N 0
Oggi h: 04:30 sereno Sereno 9 8 93 1017 10 N 3.7
Oggi h: 04:00 sereno Sereno 10 9 93 1018 10 N 3.7
Oggi h: 03:30 sereno Sereno 10 9 93 1018 10 N 1.8
Oggi h: 03:00 sereno Sereno 11 9 87 1018 10 N 3.7
Oggi h: 02:30 sereno Sereno 11 9 87 1018 10 N 5.5
Oggi h: 02:00 sereno Sereno 11 9 87 1018 10 N 3.7
Oggi h: 01:30 sereno Sereno 11 10 93 1019 10 N 5.5
Oggi h: 01:00 sereno Sereno 11 10 93 1019 10 N 3.7
Oggi h: 00:30 sereno Sereno 11 9 87 1019 10 N 0
Ieri h: 23:30 sereno Sereno 11 10 93 1019 10 N 3.7
Ieri h: 23:00 sereno Sereno 12 10 87 1019 10 N 3.7
Ieri h: 22:30 sereno Sereno 12 9 81 1019 10 N 1.8
Ieri h: 22:00 sereno Sereno 12 10 87 1019 10 N 0
Ieri h: 21:30 sereno Sereno 13 10 81 1019 10 N 5.5
Ieri h: 21:00 sereno Sereno 13 10 81 1019 10 N 3.7
Ieri h: 20:30 sereno Sereno 14 10 76 1019 10 N 3.7
Ieri h: 20:00 sereno Sereno 15 10 72 1019 10 N 3.7
Ieri h: 19:30 sereno Sereno 16 10 67 1019 10 N 5.5
Ieri h: 19:00 sereno Sereno 17 10 63 1019 10 N 5.5
Ieri h: 18:30 sereno Sereno 17 10 63 1019 10 N 9.3
Ieri h: 18:00 sereno Sereno 18 10 59 1019 10 N 11.1
Ieri h: 17:00 sereno Sereno 18 9 55 1019 10 N 13
Ieri h: 16:30 molto_nuvoloso Molto Nuvoloso 18 9 55 1019 10 N 13
Ieri h: 16:00 sereno Sereno 18 9 55 1019 10 N 11.1
Ieri h: 15:30 sereno Sereno 18 9 55 1019 10 N 13
Ieri h: 15:00 sereno Sereno 18 9 55 1019 10 N/NE 11.1
Ieri h: 14:30 poco_nuvoloso Poco Nuvoloso 18 9 55 1020 10 N 11.1
Ieri h: 14:00 molto_nuvoloso Molto Nuvoloso 18 10 59 1020 10 N/NO 13
Ieri h: 13:30 nuvoloso Nuvoloso 18 10 59 1020 10 N/NO 13
Ieri h: 13:00 molto_nuvoloso Molto Nuvoloso 17 10 63 1020 10 NO 14.8
Ieri h: 12:30 poco_nuvoloso Poco Nuvoloso 17 10 63 1020 10 N/NO 11.1
Ieri h: 12:00 poco_nuvoloso Poco Nuvoloso 16 10 67 1021 10 N/NO 11.1